Simultaneous Nadir Overpasses (SNOs) Predictions

Prediction of SNOs between LANDSAT-8 and METOP-A Satellite Orbit:

Table of predicted SNOs for the next 14.0 days since TLE Epoch: 3/12/2016
Index Date (LANDSAT-8) Time (LANDSAT-8) Lat,Lon (LANDSAT-8) SZA (LANDSAT-8 ) Date (METOP-A) Time (METOP-A) Lat,Lon (METOP-A) SZA (METOP-A ) Distance(km) Time Diff (sec)
1 03/13/2016 16:16:36 81.11, -24.80 85.43 03/13/2016 16:16:30 81.11, -24.83 85.43 0.65 6
2 03/13/2016 17:06:02 -81.13, 143.14 94.54 03/13/2016 17:07:10 -81.13, 142.96 94.53 3.10 68
3 03/16/2016 11:01:23 -81.10,-126.13 95.67 03/16/2016 11:00:14 -81.10,-126.13 95.69 0.08 69
4 03/16/2016 11:50:48 81.13, 41.94 84.39 03/16/2016 11:50:52 81.13, 42.08 84.40 2.40 4
5 03/19/2016 06:35:37 -81.09, -59.83 96.78 03/19/2016 06:34:39 -81.09, -59.97 96.81 2.40 58
6 03/19/2016 07:25:02 81.12, 108.21 83.27 03/19/2016 07:25:17 81.12, 108.19 83.28 0.45 15
7 03/22/2016 02:09:50 -81.10, 6.73 97.85 03/22/2016 02:09:02 -81.11, 6.90 97.84 3.03 48
8 03/22/2016 02:59:15 81.12, 174.75 82.20 03/22/2016 02:59:41 81.12, 174.65 82.20 1.76 26
9 03/24/2016 21:44:03 -81.10, 73.20 98.93 03/24/2016 21:43:26 -81.11, 73.36 98.92 2.94 37




NCC Satellite Simultaneous Nadir Overpasses (SNOs) Prediction Service
